Theta_e
311 312 313 313 313 313 313 314 313 312 311 310 310 309 308 307 307 306 305 306 307 307 308 308 308 307 308 309 312 314 314 317 320 319 320 319 314 311 310 312 313 313 313 313 313 314 315 315 315 315 317 318 320 321 319 319 320 320 321 317 315 316 318 319 319 318 318 319 316 315 315 315 315 315 314 313 313 314 315 315 315 316 315 315 313 313 328 333
311 312 312 312 312 312 313 313 313 312 311 309 308 308 307 307 307 306 305 306 306 307 307 308 308 308 308 309 313 313 314 318 320 320 319 317 314 311 310 312 313 314 314 315 315 314 315 314 314 315 316 317 318 320 320 319 319 320 321 317 317 319 319 319 319 318 318 318 317 316 315 315 316 315 314 314 315 315 314 316 315 316 315 315 313 313 325 332
311 311 312 312 312 312 312 312 312 312 311 309 308 307 307 306 306 306 306 305 306 307 307 308 308 308 308 310 313 313 316 320 319 317 317 316 316 312 311 313 314 314 315 316 316 314 315 314 315 315 315 316 317 318 319 319 318 320 320 318 318 320 319 317 318 318 316 316 317 316 315 315 316 316 315 314 316 316 315 316 316 316 316 316 315 313 323 331
311 311 311 311 312 312 312 312 312 311 311 309 308 307 307 306 306 306 306 306 307 307 308 308 307 308 309 311 313 313 318 320 316 317 316 315 316 312 312 314 315 314 314 315 314 314 315 315 315 315 314 315 315 317 317 317 317 319 317 317 318 318 319 317 316 316 314 315 317 316 315 315 316 315 315 315 316 317 316 317 317 317 316 317 316 315 323 331
311 310 310 311 311 311 311 311 311 311 310 309 308 307 306 306 305 305 305 306 307 307 308 308 308 309 310 313 313 315 319 316 314 319 315 314 315 312 313 315 314 315 314 314 314 314 314 315 315 315 315 315 315 316 316 315 316 318 316 317 317 317 318 316 315 314 313 314 316 316 315 315 315 315 315 315 315 317 317 317 317 317 317 318 318 318 323 329
311 310 310 310 310 310 311 311 311 310 310 308 307 306 305 305 305 305 306 306 307 308 308 308 308 309 312 314 313 316 319 313 315 318 314 313 313 312 315 315 315 315 314 314 315 315 315 315 315 314 315 315 315 314 315 315 315 316 316 316 315 316 317 315 315 313 313 315 316 316 316 315 315 315 315 315 315 316 316 316 317 316 317 319 320 320 322 326
310 310 310 310 310 310 310 311 311 311 310 308 308 307 305 305 305 305 306 306 307 308 308 308 309 311 313 313 314 317 318 315 316 315 312 312 312 314 315 315 316 315 314 315 315 315 314 314 315 315 314 314 314 315 315 314 314 315 316 316 315 315 316 314 314 312 312 315 315 315 315 315 315 316 316 315 316 316 316 315 315 314 315 318 321 321 322 325
310 309 309 309 310 310 310 310 311 311 311 309 309 308 306 305 305 305 306 307 308 308 308 309 309 312 313 314 318 318 316 318 317 312 311 312 313 315 316 315 316 314 315 316 315 316 314 314 315 315 315 314 315 315 315 314 314 315 316 316 315 315 315 313 313 312 313 314 314 313 314 316 316 315 314 315 316 316 316 314 314 314 313 315 319 320 321 324
310 309 309 309 309 310 310 310 310 311 311 310 310 309 307 306 306 306 307 308 308 309 310 309 311 313 313 316 319 315 316 318 314 311 312 313 314 315 316 317 315 315 316 316 316 315 314 315 314 314 315 315 315 315 315 315 314 316 317 316 315 315 314 313 313 313 313 314 313 314 316 316 314 313 314 316 316 316 315 314 314 314 313 314 316 319 320 322
309 308 308 308 309 309 309 309 310 310 310 310 310 310 309 307 306 307 307 308 309 310 310 310 312 313 314 317 316 313 318 317 312 312 313 314 316 316 316 317 315 316 317 316 316 315 315 316 315 316 316 315 315 315 315 316 316 316 317 316 316 316 315 314 315 314 314 314 313 314 317 316 314 313 315 316 315 314 314 314 314 314 314 314 314 316 319 321
309 308 308 308 309 309 309 309 310 310 310 309 309 310 309 307 307 307 308 309 310 311 311 312 313 314 315 316 312 314 319 316 312 312 313 314 316 316 316 316 315 317 317 316 317 316 316 317 316 316 317 315 315 316 315 314 315 316 316 316 316 316 315 315 315 315 315 315 313 315 316 316 315 314 316 317 314 314 315 315 315 314 315 315 315 315 317 320
309 309 309 309 309 309 309 310 310 310 310 309 309 309 308 307 308 308 309 310 311 311 312 313 314 315 316 314 314 319 318 315 312 312 312 314 315 316 317 316 315 316 317 317 318 315 315 317 317 316 316 315 315 315 315 314 315 316 316 317 317 316 317 316 316 315 315 316 314 315 315 316 316 315 316 316 314 314 315 315 316 315 315 316 316 315 315 317
310 310 310 310 309 310 310 310 310 310 311 310 309 308 308 308 309 309 310 311 312 312 313 314 314 315 316 314 317 319 318 314 311 312 312 314 315 316 315 315 315 315 316 318 316 313 313 315 316 316 316 316 316 315 315 315 315 316 316 317 317 316 316 317 317 315 316 315 314 315 313 314 318 318 317 316 314 315 315 316 316 316 317 316 316 316 315 316
310 310 310 310 310 311 311 311 311 311 311 310 308 308 308 309 309 310 311 312 312 313 313 314 314 314 314 315 317 318 318 313 311 313 313 314 316 315 314 314 314 314 315 314 313 312 313 315 316 315 316 315 315 314 315 316 316 317 317 316 317 315 315 317 316 315 316 314 314 315 313 315 319 319 317 315 314 315 316 317 317 317 317 317 317 317 315 316
311 311 310 310 310 311 311 312 312 312 311 310 308 308 309 310 310 311 312 312 313 313 313 315 314 314 313 314 316 317 317 315 313 314 313 314 317 316 315 314 314 314 314 313 313 313 315 317 317 316 315 314 315 316 317 317 316 318 315 314 317 315 315 318 316 315 317 314 314 316 314 316 319 319 316 314 314 315 316 317 317 317 318 317 317 317 316 316
312 312 311 311 311 311 311 312 312 312 311 309 309 309 310 311 311 311 312 312 314 314 315 317 315 314 312 314 315 315 317 317 316 314 312 314 317 318 316 315 315 315 314 314 314 315 317 316 316 317 315 314 317 317 318 316 316 318 314 313 316 315 315 317 315 314 316 315 315 315 315 318 319 318 315 313 314 315 316 317 317 318 317 318 317 316 317 316
313 312 312 312 311 310 310 311 311 311 310 309 310 310 310 311 312 313 313 314 316 315 315 317 313 312 311 312 314 314 317 319 316 314 312 314 316 316 316 316 317 316 316 316 316 317 317 316 316 317 317 316 317 318 316 313 313 316 315 314 317 317 314 314 315 315 314 315 316 316 316 317 318 318 316 315 315 315 316 317 317 318 318 318 318 318 317 317
314 313 313 312 312 311 310 310 310 311 310 309 311 311 311 313 313 315 315 314 314 313 312 312 311 311 310 310 313 315 318 318 315 314 313 313 314 315 316 317 317 317 317 317 317 317 318 317 317 318 318 316 318 318 315 313 314 315 315 314 315 316 314 314 316 315 315 315 316 317 317 317 317 318 317 317 316 316 317 317 317 317 318 318 318 318 318 318
315 315 315 314 314 313 312 311 310 310 310 311 312 313 313 314 314 315 316 314 312 310 310 311 310 310 310 312 315 316 316 316 314 315 314 314 314 314 316 317 317 318 317 317 318 318 318 319 318 318 318 317 317 317 316 316 316 316 317 316 314 314 314 315 317 314 315 316 316 316 316 317 317 317 318 317 317 317 317 317 318 317 317 317 318 318 319 319
317 317 316 316 316 315 314 313 312 310 310 313 315 314 314 314 313 313 314 313 311 311 311 311 311 312 312 314 317 315 315 315 315 316 315 314 314 316 317 317 318 318 317 318 319 317 317 319 318 318 318 317 317 317 317 317 316 316 316 315 314 314 314 316 318 314 314 315 315 317 317 317 317 317 317 318 317 317 317 317 318 318 318 318 318 318 319 319
318 317 317 317 316 316 315 315 313 311 311 314 315 315 312 311 311 312 312 311 311 312 312 312 313 313 314 316 317 316 315 316 316 317 315 314 315 317 316 317 318 317 317 319 319 317 317 318 318 318 318 318 317 317 317 316 316 316 315 314 314 315 315 317 317 314 314 314 315 316 317 317 317 317 317 317 317 317 317 318 318 318 318 318 319 319 320 319
319 319 318 317 317 317 316 316 316 312 310 312 314 313 312 311 311 311 312 310 312 312 312 312 313 313 314 315 316 315 316 316 316 317 315 314 316 316 316 316 316 317 317 318 318 317 317 317 318 318 317 317 317 317 317 316 317 317 316 315 315 316 316 316 316 315 314 314 315 316 316 316 317 317 317 317 317 317 317 318 318 318 318 318 319 319 320 320
320 320 319 318 318 318 317 318 317 314 312 314 315 314 312 311 310 309 312 312 313 312 311 311 312 312 313 314 315 315 316 315 316 317 315 315 316 316 317 316 315 317 318 316 316 315 315 316 316 316 316 316 316 316 316 316 317 317 317 315 315 318 316 313 314 315 315 314 315 316 316 317 317 317 317 318 318 318 319 319 319 319 319 319 320 320 320 320
321 320 320 320 319 318 318 318 317 316 314 313 314 313 312 313 311 311 314 313 311 311 311 311 312 312 313 314 314 315 315 314 316 317 315 315 315 315 316 316 316 317 316 316 315 315 316 315 313 314 316 316 316 316 317 316 315 317 318 316 315 318 316 314 315 316 315 315 315 317 315 314 316 318 318 320 320 319 319 319 319 320 320 321 321 321 321 321
321 320 321 320 319 319 318 318 319 317 314 313 313 311 311 314 313 310 312 310 309 311 310 311 312 312 313 313 314 315 314 313 314 317 316 316 315 315 315 316 316 316 316 316 315 314 316 314 312 315 315 316 316 316 317 316 314 315 319 319 316 316 317 316 318 316 314 314 316 317 313 310 314 317 318 319 319 319 319 319 319 319 320 321 321 321 322 321
321 321 321 320 320 319 318 320 319 315 315 315 314 310 309 312 311 310 311 309 310 311 310 310 312 311 311 313 315 314 311 311 313 315 316 315 315 315 315 315 315 316 316 316 316 316 315 312 313 316 316 317 318 315 317 318 313 313 317 318 316 317 318 317 318 316 313 315 317 316 313 311 313 314 316 318 318 319 319 318 319 319 319 320 321 321 322 322
320 321 321 320 319 319 319 321 319 316 316 316 313 310 309 310 310 310 311 310 311 313 311 309 309 310 312 314 314 310 309 312 313 314 315 314 314 314 314 315 314 314 316 316 315 316 315 313 315 317 317 319 318 316 318 317 313 315 318 317 316 316 318 319 319 317 316 318 317 316 316 314 313 314 316 319 318 318 318 317 318 319 319 319 320 321 321 321
317 320 320 320 319 319 319 319 319 319 317 316 314 311 309 310 312 311 309 311 313 314 312 309 308 310 313 314 312 309 309 311 314 314 313 312 313 314 314 315 315 315 316 315 314 314 316 317 317 317 317 318 317 317 319 317 315 318 318 317 317 317 319 320 319 318 319 319 316 317 319 317 314 315 316 319 317 317 318 318 318 318 320 321 320 320 320 319
315 318 319 320 319 319 319 318 319 319 317 316 314 309 310 312 313 311 309 312 314 312 311 310 309 310 312 312 310 310 310 311 314 314 312 312 313 313 313 315 315 316 315 314 316 316 315 314 315 317 317 318 316 314 316 317 317 317 316 317 319 319 319 320 319 318 319 319 317 319 320 315 313 313 314 317 317 318 318 317 318 318 319 321 319 321 320 318
314 316 318 319 318 318 318 318 319 318 317 317 312 308 312 313 311 310 311 314 315 312 310 310 310 311 312 310 310 310 310 312 314 314 313 313 313 313 312 313 314 316 316 315 317 316 312 311 312 316 316 316 314 313 314 317 317 317 319 320 319 320 320 319 319 318 316 317 317 319 319 315 314 313 312 315 316 318 319 316 318 319 319 321 320 321 320 318
312 315 317 317 317 317 318 319 319 318 317 316 313 311 313 314 311 311 312 313 313 313 311 310 311 312 311 311 311 311 311 314 314 314 314 314 314 313 313 313 315 316 317 316 317 316 314 314 314 314 313 313 315 314 314 315 317 319 320 318 316 317 319 317 318 319 316 315 316 317 318 318 317 314 312 316 318 316 317 317 317 318 320 322 321 320 318 318
309 313 316 316 317 317 318 319 318 318 318 315 314 314 313 312 311 312 313 310 311 314 313 312 313 312 311 312 312 311 311 314 314 314 315 314 315 314 313 314 315 315 315 315 317 317 317 317 316 314 312 313 316 316 315 315 317 319 317 315 314 313 315 315 317 319 316 315 316 315 316 318 317 315 314 317 318 316 317 318 318 317 319 322 322 320 318 318
307 310 313 315 316 316 317 317 316 317 317 315 315 315 312 312 312 312 312 310 312 315 314 313 313 313 312 312 313 312 312 314 314 315 315 315 315 315 314 314 314 315 314 314 317 317 317 319 317 316 313 313 315 317 316 316 316 317 316 315 314 311 313 315 316 316 315 315 315 314 316 317 314 314 317 317 316 317 317 317 318 319 318 319 322 321 320 319
306 307 309 311 314 315 316 316 315 316 315 315 318 317 313 313 313 312 312 313 313 313 313 314 314 313 313 313 314 313 312 314 314 315 316 316 316 317 315 314 314 315 315 314 316 317 316 317 318 317 315 313 315 317 316 316 316 317 317 316 314 312 312 313 313 313 313 314 314 313 315 315 313 313 316 317 317 317 316 317 317 317 318 319 321 321 320 320
305 306 306 308 311 314 315 316 316 315 314 315 318 315 313 313 313 312 313 314 314 313 313 313 314 314 314 315 315 313 313 315 314 314 316 316 316 317 316 315 315 315 315 313 314 316 315 315 317 317 315 314 315 316 315 317 317 317 319 319 317 315 312 312 313 313 313 314 315 315 315 315 315 315 316 316 316 316 316 316 316 317 317 318 318 319 319 319
305 305 306 308 309 311 315 316 315 314 314 317 316 314 313 315 316 316 315 314 314 314 314 314 315 315 315 315 315 313 313 316 316 315 316 316 316 316 315 316 315 314 315 313 313 314 314 315 317 316 314 314 314 316 316 316 317 318 319 320 318 317 315 313 313 313 313 313 313 314 315 314 313 315 316 315 315 315 316 316 317 317 319 320 321 322 322 320
305 306 307 309 308 310 314 315 315 313 316 319 317 314 315 316 317 319 317 314 313 314 314 314 314 315 315 316 315 315 314 315 316 315 315 316 316 315 316 316 315 314 314 312 313 315 313 314 315 315 316 314 312 314 316 315 317 318 319 318 316 316 316 313 313 314 315 315 314 312 312 312 311 313 316 316 315 315 315 316 317 316 318 320 323 327 326 322
305 305 305 308 307 308 313 315 314 313 316 318 316 316 316 315 316 317 316 314 314 314 314 314 315 316 316 316 315 315 314 314 315 315 315 316 315 315 316 316 316 315 314 312 312 315 314 313 314 313 315 314 311 313 316 315 315 316 317 317 316 316 316 314 314 315 315 317 316 313 312 312 311 312 314 315 315 316 315 315 316 316 317 319 320 324 325 322
305 302 302 306 306 307 312 314 314 314 315 317 316 317 317 315 316 316 315 314 315 315 315 315 316 315 316 316 316 316 314 314 316 315 315 316 315 315 315 315 316 315 315 313 312 314 313 313 315 312 312 314 313 314 316 316 315 314 315 316 316 317 316 314 315 313 313 315 316 316 314 312 314 313 313 314 314 315 315 315 315 315 316 319 319 321 323 322
304 301 301 305 304 306 311 313 314 315 316 316 317 317 317 316 316 315 314 315 316 317 319 319 317 316 316 316 316 316 315 315 317 316 315 315 315 315 315 314 316 315 314 314 313 314 313 312 314 313 312 314 315 315 316 317 316 314 314 315 316 316 315 315 316 314 313 314 314 315 314 312 313 315 315 315 315 314 315 316 316 317 317 319 320 321 322 322
303 301 303 305 304 306 312 313 314 316 315 315 315 316 317 316 315 315 314 314 315 316 318 319 318 318 318 317 316 316 316 315 316 316 316 315 315 316 315 314 315 315 314 314 314 314 314 312 313 314 314 315 315 316 315 315 317 315 314 315 316 316 316 316 317 317 316 315 315 315 315 313 313 315 316 314 314 315 317 318 318 318 319 320 322 322 322 322
301 300 303 307 306 308 313 313 314 314 314 314 314 314 316 315 314 314 314 314 314 314 314 315 317 319 319 318 317 318 319 320 318 316 316 316 315 315 314 313 314 314 314 315 315 315 315 314 313 315 316 316 315 314 312 313 315 316 316 316 315 316 316 316 317 317 317 317 316 316 317 316 315 315 316 315 316 317 317 319 318 318 318 320 322 322 322 322
301 300 304 307 307 309 312 312 312 313 313 314 313 313 314 314 314 314 314 314 314 314 315 314 315 317 317 317 317 317 319 321 319 316 317 317 315 315 314 312 313 314 314 316 316 315 315 315 314 314 315 315 314 313 312 312 314 316 317 317 317 317 317 317 316 316 317 318 316 316 317 317 315 316 317 316 319 321 318 318 318 319 320 320 320 321 322 321
300 301 304 306 307 310 311 310 310 312 312 312 313 313 314 313 313 314 314 314 314 315 316 315 315 316 316 316 316 316 316 318 318 317 317 317 316 314 313 313 313 312 313 316 317 315 315 316 315 315 316 316 316 316 315 314 315 316 317 317 318 318 319 319 316 315 316 318 318 317 317 316 315 318 319 316 317 319 317 317 319 321 322 322 321 321 321 322
300 300 302 304 306 308 310 309 308 310 311 311 311 311 312 313 313 313 313 313 314 314 315 315 315 314 315 315 316 316 315 317 318 317 316 317 317 315 314 313 313 312 315 321 319 315 317 319 316 315 316 318 318 319 318 317 315 315 316 317 318 318 319 319 317 317 318 318 318 318 317 315 315 317 318 315 314 315 314 315 318 319 320 320 321 321 321 322
300 299 301 303 304 306 307 307 308 309 310 310 310 310 311 311 312 312 312 313 313 314 314 315 315 315 315 316 316 316 316 316 317 317 317 317 317 316 313 312 312 314 318 321 318 316 320 321 317 315 316 316 317 318 319 319 317 316 317 318 318 319 320 319 318 318 318 318 318 318 317 317 316 316 316 316 316 316 315 315 316 318 319 320 320 321 320 320
300 300 301 304 306 306 306 306 307 309 310 309 309 309 309 309 311 312 313 312 312 313 314 314 315 315 316 316 316 317 316 316 316 317 317 317 317 315 313 313 313 314 316 316 316 318 320 318 315 316 316 315 315 315 317 319 318 317 318 318 318 319 320 321 319 318 318 319 318 317 318 319 318 315 316 317 316 316 316 315 315 316 318 321 322 322 321 318
301 301 301 304 307 307 307 307 307 308 309 308 308 309 309 309 309 311 312 312 312 313 314 314 314 315 315 315 316 316 316 316 317 317 317 317 317 316 315 315 315 314 315 315 316 319 319 316 316 317 316 315 315 315 315 316 316 317 318 318 318 319 320 320 319 318 318 319 318 317 318 319 317 316 316 316 316 316 316 316 316 316 318 320 321 321 321 320
300 301 301 303 305 306 307 307 306 307 309 308 308 308 309 309 309 309 311 312 312 312 313 314 314 314 314 314 315 316 316 317 317 317 317 317 317 317 316 317 317 315 314 315 316 318 317 315 316 317 317 317 316 316 316 316 317 317 317 316 317 318 319 320 319 318 318 319 317 317 318 318 317 316 316 316 316 317 316 317 316 316 318 319 319 319 321 321
300 301 301 302 303 304 305 306 306 307 308 308 308 309 308 308 309 309 309 311 312 312 312 313 313 313 313 314 314 315 316 316 316 316 317 317 317 317 316 317 316 314 313 315 316 316 316 317 317 316 317 318 317 317 317 317 318 319 318 317 317 317 318 319 319 318 318 319 318 318 319 318 317 316 316 316 317 317 317 317 316 316 316 317 317 317 318 319
301 301 301 302 302 302 303 305 306 306 308 308 308 308 308 308 308 308 309 309 310 311 312 312 312 312 312 313 313 314 314 314 315 315 315 316 316 316 316 316 316 315 314 314 315 315 315 316 317 316 317 318 318 317 317 317 318 319 318 318 317 317 317 318 318 319 319 319 319 319 320 318 317 316 317 316 316 317 317 316 317 317 316 316 316 316 316 317
300 301 301 301 301 301 302 303 304 306 307 308 307 307 308 308 307 307 308 309 309 310 310 311 312 311 311 312 312 312 312 312 313 313 313 314 314 314 315 315 316 316 315 313 313 314 313 314 315 316 318 319 318 318 318 318 319 320 319 318 317 317 317 317 317 318 318 318 318 319 318 317 316 316 317 316 316 316 316 316 317 318 317 316 316 316 316 316
Wind_Speed
5 5 5 4 4 3 3 3 3 4 5 5 6 6 6 7 7 6 6 6 6 7 7 6 5 4 3 3 3 3 3 3 4 6 4 2 4 6 7 6 5 5 5 5 5 5 4 5 5 4 5 4 1 2 2 1 1 3 4 5 4 4 2 2 3 1 1 1 7 9 10 9 7 7 4 2 6 6 3 5 4 3 3 3 8 7 8 11
6 6 5 5 4 3 3 3 4 5 6 6 6 7 7 7 7 7 7 6 7 7 6 6 5 5 3 4 3 3 4 4 5 4 2 4 5 5 6 5 4 4 5 4 4 5 4 4 6 6 5 3 1 1 3 1 1 4 3 5 4 2 2 3 1 2 3 2 4 9 9 8 5 7 7 5 8 8 7 7 8 7 7 8 8 8 10 11
6 6 5 5 4 4 4 3 4 5 6 7 7 7 7 7 8 8 7 7 7 7 7 6 6 5 4 4 3 4 5 4 6 3 3 6 5 5 6 5 4 4 5 2 3 4 2 3 6 6 4 3 2 2 4 1 1 2 2 5 2 2 4 5 3 4 5 4 2 7 6 6 3 4 6 6 7 8 9 8 8 9 10 11 11 11 12 12
7 6 5 5 5 4 4 4 4 5 6 7 7 7 7 8 8 8 8 8 7 7 7 6 6 5 5 4 4 5 5 5 4 4 4 6 5 5 5 4 4 3 4 3 2 2 2 4 5 5 4 3 3 3 5 2 1 1 2 3 2 2 1 4 4 5 6 4 1 5 5 7 4 3 5 6 7 7 9 9 9 9 9 12 13 13 14 14
8 6 6 5 5 4 5 4 4 4 5 6 7 8 8 8 8 8 8 8 8 8 7 7 6 5 5 4 4 4 3 5 2 3 4 7 6 6 5 4 3 3 4 4 3 4 4 6 5 4 4 3 5 5 4 3 1 2 2 2 5 2 1 4 4 4 4 2 0 4 4 5 4 3 7 8 9 4 2 4 5 4 2 9 13 13 14 14
10 7 6 6 5 5 5 4 4 4 4 5 6 7 8 8 8 9 9 9 9 8 8 7 6 6 5 4 4 3 4 2 2 1 5 6 6 6 4 3 2 3 5 3 4 5 6 7 6 5 4 4 6 5 3 4 1 2 2 3 4 3 3 3 3 3 2 1 1 2 1 1 3 7 7 10 13 4 6 6 4 5 4 7 12 13 13 14
10 8 7 6 6 5 5 5 4 4 4 4 5 6 8 8 8 9 9 10 9 9 8 8 7 6 5 4 3 4 5 0 3 2 5 6 6 5 3 2 2 3 3 4 6 7 6 8 7 5 4 3 5 4 3 4 3 4 2 5 3 4 3 3 3 2 1 2 1 2 2 3 7 6 3 8 14 8 3 6 6 7 5 6 10 11 12 13
11 9 8 8 6 5 5 5 4 4 4 4 4 5 7 8 9 9 9 10 9 9 9 8 7 6 6 5 2 5 5 2 3 3 5 5 5 4 2 1 1 2 3 5 4 5 6 7 6 5 4 2 3 5 3 5 5 5 2 5 3 3 4 3 3 2 1 2 2 2 5 5 5 3 3 10 14 10 5 6 4 4 4 5 8 10 11 12
12 10 9 8 7 6 6 5 5 5 4 4 4 4 6 7 8 9 9 9 9 10 9 9 7 6 6 4 3 5 2 3 4 5 5 4 3 3 2 1 1 1 3 4 4 5 6 5 5 4 2 3 3 5 4 5 3 2 4 6 4 4 4 3 2 3 1 1 0 4 7 4 1 3 8 14 11 4 4 5 5 5 5 7 8 10 11 11
12 10 9 9 7 7 6 6 5 5 5 5 5 4 5 6 7 8 8 9 9 9 9 8 7 7 6 4 5 4 2 5 6 6 5 5 4 3 1 1 2 2 3 2 2 3 3 2 4 2 1 4 3 3 1 3 0 3 6 6 5 5 4 2 2 3 1 1 2 5 6 3 2 2 8 6 1 4 4 6 7 7 9 9 9 10 11 12
10 10 10 9 7 7 6 6 6 5 5 5 5 4 4 5 7 7 8 8 8 8 8 7 7 7 4 5 6 3 3 6 7 6 6 5 4 2 1 1 2 1 2 1 0 3 4 1 5 2 0 5 5 3 2 0 1 4 7 7 6 5 4 4 3 4 3 2 2 5 6 5 3 5 11 3 5 3 4 7 8 8 9 10 10 9 10 11
6 8 9 8 7 6 5 5 5 5 4 3 4 4 4 5 6 7 7 8 8 7 7 6 7 6 3 5 4 1 4 6 7 7 6 4 4 2 2 1 2 1 3 1 2 2 2 2 2 1 2 5 6 5 3 2 2 5 4 4 7 5 5 6 5 3 3 2 2 3 6 9 9 12 15 6 6 4 4 6 7 8 8 8 9 8 8 10
6 7 6 6 6 5 5 4 4 4 4 3 4 3 4 5 7 8 8 8 7 7 6 6 7 5 4 4 2 4 5 6 7 7 6 6 5 3 3 2 2 1 2 1 4 4 5 3 2 1 3 2 3 3 4 4 2 5 4 3 4 5 6 7 5 3 3 2 3 2 5 8 10 16 12 7 6 5 6 8 8 8 8 7 8 8 8 10
7 7 6 4 4 4 4 4 4 4 4 4 4 4 5 6 8 8 8 8 7 7 6 6 6 4 4 1 3 3 5 7 7 6 8 7 6 6 6 5 5 4 3 6 7 6 5 4 1 5 3 2 4 4 5 5 3 5 4 2 3 5 3 7 5 4 5 3 4 4 5 7 6 6 7 6 5 6 8 9 9 9 8 7 7 8 9 10
6 6 6 5 4 3 3 3 3 4 4 3 3 5 6 8 8 8 8 8 7 6 5 5 5 4 4 2 2 2 5 6 5 5 9 8 6 5 6 7 9 9 8 9 9 7 6 3 2 5 3 3 4 6 5 5 4 4 4 4 4 4 3 6 4 4 3 2 6 6 5 9 7 3 7 3 3 6 9 9 8 8 8 8 8 8 8 9
6 5 4 4 3 3 2 2 2 4 4 2 3 6 7 8 8 8 8 7 6 6 4 3 4 3 4 3 3 3 4 4 5 6 9 9 5 5 8 8 9 8 8 9 9 7 4 2 1 1 2 3 5 6 4 4 4 4 5 4 5 6 4 4 3 2 1 2 7 9 6 7 4 4 7 4 4 6 7 7 8 8 8 8 8 8 8 8
6 6 5 4 4 4 4 3 2 3 3 1 3 6 7 7 8 8 7 7 6 4 2 0 2 3 2 3 3 4 4 3 5 6 8 8 5 7 8 6 6 6 7 6 5 3 1 2 1 1 2 4 5 5 5 5 5 5 5 4 3 5 5 3 4 3 2 3 6 10 10 11 10 6 4 7 8 7 7 9 11 10 9 9 8 8 8 8
5 4 4 3 1 1 2 2 2 3 3 0 4 6 8 8 9 7 7 8 6 4 1 1 1 3 2 4 3 3 5 5 6 6 6 6 7 7 4 3 5 6 7 4 3 2 1 1 2 3 4 5 5 6 6 4 3 6 6 5 4 4 6 5 2 3 3 5 6 9 10 13 16 15 12 9 10 10 10 12 12 12 12 11 10 10 9 9
5 4 4 3 3 4 3 2 2 3 2 3 6 10 10 9 8 5 4 4 4 2 1 3 5 2 2 5 5 5 6 7 7 5 4 5 8 7 3 4 6 5 6 5 4 3 1 2 3 3 5 7 7 8 7 1 2 2 2 4 5 4 5 3 3 3 1 4 7 11 12 14 15 15 15 13 11 11 12 13 11 11 11 11 11 11 11 10
6 5 3 3 3 4 5 4 3 2 2 6 8 8 7 7 5 4 4 4 3 1 3 1 4 1 3 5 6 7 8 7 4 3 5 8 8 7 5 5 5 4 5 3 4 3 1 4 5 6 7 8 9 8 3 2 3 1 1 2 4 4 3 2 5 4 1 4 8 10 12 15 15 16 16 15 14 14 14 14 13 12 11 11 12 13 12 12
8 6 5 3 2 2 3 4 3 1 3 7 6 3 2 3 3 3 5 4 1 3 4 4 3 3 4 5 7 8 5 3 2 3 6 8 6 6 7 6 6 6 3 2 3 3 2 6 7 7 3 1 3 3 1 0 1 2 3 3 4 5 4 2 5 3 2 2 7 8 11 14 14 16 16 15 16 16 15 15 15 15 14 12 13 14 13 12
10 8 6 4 2 1 3 4 3 1 3 6 6 4 3 2 0 2 1 4 2 1 1 2 1 3 5 3 6 4 2 4 4 5 6 7 7 6 7 7 8 6 5 4 3 3 4 7 6 3 3 5 3 1 2 4 4 4 4 4 4 3 2 2 5 2 2 3 6 6 10 14 14 16 17 16 17 15 14 15 15 14 14 13 14 14 12 11
13 10 8 6 4 1 1 4 5 2 2 4 4 3 3 2 1 3 2 3 3 2 2 3 3 5 4 2 4 5 4 5 6 8 8 7 6 4 5 9 9 5 6 8 7 5 5 5 2 3 4 3 2 3 5 4 5 5 4 4 3 1 1 2 2 2 3 4 5 7 9 13 14 14 17 17 16 14 12 13 13 12 13 15 14 11 10 11
14 13 11 9 6 4 3 5 5 2 1 3 4 4 3 2 1 2 2 2 2 2 2 2 2 4 5 3 6 8 4 1 3 8 9 9 6 2 4 8 8 6 6 9 10 8 4 3 2 2 3 6 5 5 6 5 5 6 6 6 5 2 2 2 2 1 5 4 3 7 8 9 10 10 10 8 8 10 9 10 10 11 13 13 11 10 10 11
12 13 12 11 9 6 3 4 3 1 1 1 3 6 5 3 2 3 1 2 3 2 1 2 1 4 5 5 6 6 2 1 1 4 7 8 4 3 3 2 4 8 9 9 10 9 3 4 2 4 4 6 6 6 7 6 5 5 7 7 9 7 3 2 3 3 5 3 1 3 5 6 7 9 9 5 6 8 8 9 11 12 12 11 9 9 10 10
10 11 12 12 11 8 3 1 1 1 1 1 2 5 6 4 2 3 1 3 4 3 4 5 4 6 8 7 7 4 2 4 2 4 5 3 1 1 3 2 1 4 6 6 5 4 2 3 1 4 5 5 6 6 8 7 5 4 2 2 6 7 4 3 3 2 4 2 1 1 4 6 8 12 12 7 7 9 8 10 12 12 11 9 8 8 8 8
9 11 12 12 12 11 3 1 2 1 2 2 4 4 6 4 1 3 1 4 4 5 6 3 2 5 8 7 8 6 2 4 6 3 3 1 1 0 2 6 4 2 1 3 2 1 4 5 3 4 5 5 5 4 7 10 7 2 1 1 0 2 3 3 3 4 3 4 2 3 3 5 7 13 11 3 5 11 10 12 13 12 10 9 8 7 6 5
6 10 13 13 13 12 4 1 2 1 3 5 6 4 6 4 2 2 3 5 2 5 4 2 2 4 5 4 6 4 2 5 6 3 2 2 1 1 4 7 6 6 6 4 5 1 3 5 6 8 7 5 4 1 1 9 7 1 1 1 3 3 2 2 2 3 1 3 5 5 5 5 6 10 12 6 7 12 11 11 12 10 8 6 6 4 3 2
4 7 11 12 13 14 8 3 2 1 2 6 6 2 6 3 2 2 3 5 2 3 2 3 4 4 6 6 5 3 3 2 0 2 4 1 0 1 3 4 4 6 6 5 4 2 3 1 2 6 6 4 3 6 5 2 2 3 4 4 6 4 3 2 2 2 1 4 7 6 9 6 6 8 10 8 7 9 9 8 5 2 2 3 4 3 2 2
3 5 9 13 13 14 11 7 5 2 1 4 4 5 6 3 3 4 5 4 2 3 2 3 4 7 11 10 6 5 4 2 3 5 5 3 3 1 1 1 1 4 4 4 3 2 3 1 1 2 2 1 5 6 6 4 3 6 6 5 4 3 2 1 2 1 3 6 4 5 10 7 7 5 8 7 3 3 4 3 3 5 4 4 3 3 3 2
2 5 9 15 14 13 9 5 7 7 1 3 4 7 5 2 3 7 6 1 0 3 4 4 6 10 14 14 8 6 5 4 6 9 6 4 6 4 3 3 2 3 3 4 4 3 4 3 2 2 1 2 6 5 5 4 2 3 3 3 2 2 2 3 3 3 5 6 0 1 2 6 8 5 5 4 2 1 3 3 3 4 5 6 4 4 4 2
1 3 8 15 14 12 9 3 5 9 4 2 4 5 5 4 4 8 5 3 1 5 6 6 7 10 15 14 8 8 8 6 7 10 8 8 7 7 9 7 6 5 5 7 5 3 4 5 5 4 0 4 6 5 4 2 2 3 4 4 3 3 3 5 5 5 6 3 2 1 2 5 10 7 6 6 5 6 7 5 4 3 2 4 5 5 4 3
1 1 4 11 10 10 10 4 1 7 7 4 3 1 3 6 7 9 9 5 1 1 4 4 8 10 14 12 8 9 8 6 9 8 7 10 8 9 11 11 11 8 5 6 6 3 3 3 5 6 2 5 8 6 5 4 5 7 7 6 6 5 5 7 6 4 4 1 1 0 1 5 10 6 10 14 11 11 10 6 5 6 8 6 3 6 5 5
2 2 2 5 5 7 11 7 3 6 8 6 3 2 3 7 6 9 11 4 2 2 4 5 9 10 12 8 6 10 7 4 10 7 5 9 7 8 10 11 13 9 3 4 5 6 7 4 7 9 6 9 12 9 6 6 8 9 8 6 7 6 6 7 5 4 4 0 2 2 2 5 5 1 3 6 4 7 8 6 6 6 7 7 3 4 5 6
2 2 2 3 4 5 10 10 6 7 9 8 3 2 7 8 5 7 8 3 4 3 4 6 9 9 9 5 3 7 3 2 10 8 6 9 8 8 10 10 13 11 6 6 4 6 9 6 8 7 5 15 15 10 8 6 6 7 5 6 7 5 6 5 1 1 2 2 2 5 4 6 5 4 5 4 2 5 6 5 6 7 5 4 5 6 7 7
2 2 2 3 4 5 9 12 11 11 10 7 3 4 7 6 2 3 2 2 4 7 8 7 6 7 8 4 3 6 1 0 8 7 5 9 9 9 10 9 14 15 11 8 4 5 7 3 6 4 3 11 8 5 7 4 3 5 5 7 3 1 3 5 1 3 1 5 6 5 7 9 7 9 11 13 13 12 11 8 7 7 6 4 5 6 6 5
3 3 3 3 5 8 10 12 14 14 9 5 4 5 5 4 2 1 2 2 1 6 9 6 5 7 8 6 5 8 5 3 7 7 6 7 7 10 13 10 12 17 16 12 5 4 5 3 2 3 4 5 2 3 1 2 2 3 5 5 2 4 2 4 4 2 3 8 6 6 11 11 7 7 4 8 11 11 9 7 7 8 8 7 8 7 3 3
3 3 4 5 7 9 12 14 13 10 4 3 7 7 5 4 4 2 1 0 0 4 7 7 5 6 7 7 7 9 9 6 8 8 6 6 5 10 15 10 10 15 18 15 8 2 4 5 1 0 1 3 3 1 3 1 2 1 2 1 1 2 4 5 6 6 7 8 6 9 14 11 9 10 4 3 5 5 5 5 5 8 9 8 9 8 4 3
2 2 3 6 10 10 14 16 12 6 3 4 7 8 6 6 6 5 3 1 1 2 5 4 2 2 4 5 5 9 10 8 9 8 6 6 5 7 12 10 8 12 15 15 9 2 4 6 3 1 2 4 5 4 7 5 3 1 3 2 1 2 4 5 6 6 7 8 7 9 11 9 9 11 11 9 9 8 8 7 7 8 7 5 4 4 5 5
2 2 1 7 12 12 16 15 9 5 5 6 7 7 6 6 8 9 8 5 0 1 2 1 1 2 3 2 1 5 9 9 8 8 7 8 6 5 8 9 7 8 12 14 10 4 4 5 4 1 1 3 5 7 10 9 8 5 5 6 5 3 1 2 4 6 6 7 7 8 9 9 7 6 8 9 7 6 5 4 5 6 6 2 2 3 5 5
3 2 1 6 12 16 16 11 6 6 6 6 8 8 6 4 7 10 11 10 4 1 1 1 1 2 1 1 0 2 4 6 6 6 6 8 8 5 3 4 5 7 8 11 10 7 5 5 5 4 4 7 7 6 7 7 9 9 9 10 10 8 5 4 7 6 4 5 5 6 7 10 8 2 3 5 3 3 3 3 4 5 6 3 2 3 4 5
4 3 1 3 12 19 15 7 6 6 6 7 8 9 6 3 5 9 9 10 9 4 2 3 4 4 2 2 1 2 2 1 2 3 4 6 9 6 2 3 2 9 7 4 6 5 2 4 7 6 6 6 3 2 1 2 3 5 7 9 10 9 9 9 8 4 4 4 3 5 7 11 10 2 2 4 2 3 2 1 3 5 5 4 2 2 3 4
5 4 2 2 12 19 12 6 8 7 6 7 7 9 7 4 6 9 8 9 10 8 7 6 7 8 6 5 5 3 3 1 2 3 4 5 7 6 2 4 2 6 5 1 1 2 1 2 6 6 5 3 3 3 2 2 2 6 7 7 7 8 8 7 4 0 2 6 5 6 7 11 13 7 4 5 2 2 2 3 4 5 3 3 5 4 2 3
5 4 1 2 11 16 11 8 10 9 8 9 8 10 9 7 8 9 9 10 8 8 9 9 9 10 8 8 8 7 7 4 5 7 6 6 5 1 1 2 2 4 4 0 0 2 2 3 4 5 6 5 5 4 3 3 3 5 7 7 8 9 6 1 1 1 4 7 9 9 8 10 14 9 3 3 4 5 7 6 5 4 3 4 5 4 3 2
4 4 2 2 5 8 7 5 6 8 10 12 12 14 12 9 9 11 11 11 9 8 8 8 10 11 9 9 9 10 11 9 7 8 8 9 5 2 2 4 5 5 3 2 3 3 3 2 4 6 7 8 8 5 3 5 5 4 6 10 13 14 11 5 3 5 7 10 11 10 9 10 16 16 7 3 6 9 10 8 5 4 4 6 5 4 2 1
4 3 3 4 3 4 4 3 4 6 9 12 11 12 15 12 9 11 12 11 11 10 8 7 10 11 10 11 12 11 14 14 10 7 8 10 7 2 2 3 5 4 2 5 4 3 1 1 4 8 10 10 10 6 2 7 8 7 10 13 14 14 14 10 6 8 9 10 11 12 12 14 20 23 18 13 11 10 9 10 8 7 6 5 5 5 3 2
5 4 5 6 4 5 5 5 7 7 8 12 9 8 15 16 10 9 11 11 12 13 10 8 9 10 11 14 14 12 14 16 14 11 10 10 6 2 3 1 3 3 5 3 0 3 3 3 7 9 12 14 16 14 7 3 7 11 13 14 14 14 13 11 10 13 12 10 11 13 15 17 20 21 22 22 20 13 10 10 11 11 7 5 4 5 4 4
6 4 5 7 5 6 8 8 10 11 11 12 9 7 12 16 14 12 11 10 12 12 10 9 12 15 15 15 13 12 14 15 15 14 11 9 6 4 3 2 3 6 6 1 2 3 3 5 8 9 13 16 17 18 16 11 10 11 11 13 14 14 15 14 15 17 15 12 13 15 17 19 18 19 24 26 22 18 16 14 11 10 6 3 3 5 4 5
6 4 5 6 6 8 10 8 9 13 15 13 10 11 13 15 17 14 10 9 12 13 11 11 14 18 18 17 13 11 12 12 12 12 10 7 6 5 4 4 3 5 6 3 1 1 2 4 7 8 10 15 18 18 18 15 14 14 14 15 14 13 16 17 17 20 21 19 17 18 21 22 18 19 24 25 21 17 13 9 6 8 8 6 7 10 8 6
7 6 5 5 6 7 8 9 9 10 12 11 11 12 13 16 17 14 11 11 11 12 14 15 16 17 18 18 16 14 13 11 11 11 10 9 8 7 6 6 4 2 3 5 3 1 3 4 5 5 6 12 17 18 18 17 14 13 14 15 16 16 16 17 17 17 17 18 19 21 22 21 18 20 21 22 22 17 10 8 8 8 9 9 11 14 12 9
12 7 4 4 6 7 7 9 11 10 9 9 11 12 14 17 17 14 12 13 13 12 14 17 18 14 14 17 19 18 17 15 15 14 11 10 9 7 5 6 6 4 3 5 4 4 4 3 1 3 6 9 12 14 17 16 12 11 13 16 19 19 17 15 14 13 14 17 18 18 17 15 16 18 17 19 23 21 17 17 15 11 10 11 11 13 14 13
13 7 4 4 5 8 8 8 11 11 9 10 13 14 14 16 16 14 11 11 14 15 13 15 15 12 12 16 16 12 9 9 10 9 6 4 4 4 4 4 5 4 3 4 4 5 6 4 3 5 5 7 11 13 11 10 9 8 12 18 21 21 18 16 14 16 19 18 15 13 13 13 16 17 17 20 23 20 17 17 15 14 14 13 12 12 14 16
Wind_Direction
212 212 211 219 218 212 201 186 204 211 212 206 202 200 198 199 198 202 199 198 197 195 203 204 212 219 218 211 198 198 186 177 186 202 214 148 123 147 151 147 149 148 151 152 167 190 185 170 154 167 177 160 182 129 144 33 30 240 218 226 233 226 216 153 205 186 5 82 143 162 179 197 179 164 170 153 220 225 201 203 192 183 202 127 109 121 131 136
213 216 217 224 227 224 222 205 205 212 215 209 208 211 206 202 201 204 199 198 199 196 200 200 213 216 215 207 189 203 185 190 218 203 167 160 154 152 152 153 150 143 146 157 197 206 196 161 154 183 188 166 171 165 184 133 246 237 226 230 238 231 74 56 343 62 33 352 145 163 187 207 186 157 166 202 211 201 219 212 197 212 199 160 139 143 148 150
209 212 219 224 228 230 239 230 218 220 217 209 210 212 209 203 202 205 204 200 198 197 197 202 213 216 218 202 191 202 180 211 223 170 150 181 175 161 159 155 143 145 152 166 238 230 227 146 162 193 191 174 159 174 192 157 230 242 251 235 233 61 78 66 32 67 57 9 179 168 179 206 187 138 163 216 225 202 224 221 197 211 206 184 163 156 158 161
212 214 224 226 231 240 251 249 242 234 224 217 212 212 209 203 203 206 206 201 199 200 197 203 211 214 214 198 202 195 187 225 206 127 167 186 180 173 164 153 148 152 153 164 209 211 188 151 174 204 200 178 137 179 190 135 226 198 235 255 31 30 95 78 69 72 59 14 262 150 163 206 183 142 187 222 235 218 229 228 212 219 213 185 165 162 167 169
226 222 228 230 235 249 257 256 257 247 236 230 220 216 211 206 206 205 206 204 200 201 199 205 211 212 206 200 206 190 210 227 141 107 179 183 179 172 166 161 163 155 146 159 171 175 181 170 172 190 208 181 154 190 177 112 315 201 198 11 37 346 22 77 75 65 50 6 188 151 177 194 150 193 218 226 235 228 269 239 208 226 210 159 159 165 170 177
231 224 225 227 233 243 255 262 264 255 246 240 232 225 219 213 209 205 207 205 200 202 201 204 208 209 203 202 204 205 243 228 87 150 172 173 177 167 172 165 177 162 148 178 192 187 189 182 182 187 204 183 174 189 136 123 259 241 168 86 58 10 37 73 73 57 10 286 200 179 172 133 189 228 221 225 238 244 45 42 67 68 75 138 155 164 173 183
222 221 223 217 224 235 249 259 264 265 253 240 237 231 226 223 216 208 208 205 203 202 200 204 206 207 197 185 183 215 239 80 77 186 156 162 171 165 180 171 202 167 170 225 207 193 193 194 196 193 193 177 183 176 112 143 213 260 190 112 85 39 53 51 55 70 350 267 304 343 326 246 232 239 208 224 241 243 91 76 71 80 97 144 160 171 184 189
214 216 219 212 217 226 240 250 254 263 249 233 233 230 227 227 222 215 211 208 204 201 203 203 200 202 191 183 208 220 219 87 102 170 146 154 161 162 162 139 194 154 219 247 232 207 199 200 194 192 197 154 167 157 143 173 195 246 187 116 112 73 80 68 68 104 110 262 324 306 253 245 248 294 288 246 244 240 184 129 117 115 129 171 183 188 192 195
217 216 215 214 217 224 239 245 243 251 239 223 222 225 227 226 223 218 215 211 206 203 202 199 196 196 185 191 250 229 177 101 143 154 141 143 146 155 132 72 232 224 240 247 274 235 202 205 185 194 196 106 151 150 166 208 197 210 129 119 128 109 95 94 115 118 129 242 203 237 238 230 277 331 271 251 244 213 157 169 186 189 198 205 203 202 199 200
223 218 211 213 220 230 241 238 242 258 240 219 209 211 222 222 216 213 216 213 210 207 203 200 190 182 182 201 232 221 99 111 149 146 138 131 123 133 130 241 205 249 250 205 261 253 238 238 147 162 28 110 154 139 169 244 84 110 125 116 117 121 117 135 147 129 176 205 186 247 254 216 148 262 254 248 174 134 167 213 208 209 222 222 216 212 208 207
225 220 211 210 217 229 238 234 245 259 244 222 206 209 217 214 206 203 210 210 206 208 205 199 185 176 188 225 231 214 95 123 149 146 138 125 117 122 191 186 142 246 282 166 138 325 308 339 127 157 246 140 144 113 83 54 115 131 135 125 122 137 144 171 177 151 199 176 184 269 283 253 165 222 245 205 96 151 197 220 209 215 228 226 224 216 212 214
202 203 206 209 211 220 232 234 247 258 256 227 200 205 209 202 196 193 197 198 198 202 198 191 185 173 191 234 241 115 114 136 150 149 141 125 118 119 155 148 126 233 303 286 85 30 46 80 151 174 97 153 149 121 120 132 150 139 162 168 146 174 185 177 166 148 223 188 139 291 283 252 209 223 239 190 141 167 200 230 219 222 228 225 224 215 213 215
169 174 187 198 200 205 220 235 251 264 271 241 207 197 196 187 181 181 184 187 190 191 188 187 184 180 216 225 127 105 131 143 147 146 143 129 112 95 103 109 118 155 304 92 101 108 110 46 319 90 71 173 136 109 133 136 167 152 191 241 160 203 204 170 151 148 219 159 126 253 272 257 219 220 221 154 159 196 227 245 240 237 234 226 220 213 217 214
157 164 173 178 183 189 216 239 250 264 273 252 213 187 176 169 171 173 176 179 183 183 180 184 181 192 230 178 96 136 146 141 140 140 145 132 110 96 90 91 101 111 112 109 106 114 101 40 58 117 54 2 104 141 151 141 192 164 168 244 210 227 176 143 144 167 202 159 149 223 256 271 259 198 152 130 175 208 237 247 246 247 241 233 225 220 223 216
163 164 172 172 166 171 210 238 256 273 275 259 198 175 163 163 165 167 172 173 176 178 175 184 182 203 227 155 106 165 148 145 151 156 155 139 122 115 101 97 97 97 101 103 102 97 79 48 144 129 76 44 136 172 163 153 194 174 176 210 208 228 144 126 135 172 205 155 172 209 250 264 266 126 112 124 188 208 240 248 249 252 245 241 235 232 235 228
179 178 169 156 159 183 217 234 275 287 287 274 174 164 159 160 159 160 166 164 167 164 153 178 186 240 245 148 122 160 161 172 177 177 168 150 130 120 119 113 99 91 92 94 95 89 61 38 60 104 105 146 183 190 174 174 191 191 221 219 184 212 200 145 133 152 174 136 189 215 252 275 256 132 128 156 190 209 235 246 253 258 253 247 239 238 239 235
155 169 176 184 202 215 221 236 277 307 319 309 164 156 152 153 151 151 153 151 148 135 118 103 194 255 265 116 134 169 151 164 178 183 182 169 140 129 138 130 111 108 108 103 104 102 31 63 105 217 184 197 209 203 198 202 199 188 214 234 193 212 231 191 136 127 172 212 219 222 239 264 268 260 201 174 182 205 237 253 261 266 262 256 249 244 239 236
123 117 132 156 189 219 223 239 284 330 336 213 157 143 138 137 135 133 136 134 115 96 77 354 202 238 218 158 155 129 120 136 159 168 186 182 155 150 164 147 141 147 145 143 170 187 195 155 207 215 189 209 213 206 211 214 225 205 198 220 217 212 240 248 157 125 186 216 239 239 241 254 263 270 265 235 205 210 241 258 264 267 264 262 256 250 246 239
144 111 93 79 52 36 38 33 357 348 11 125 130 121 117 117 120 123 138 154 147 137 178 180 185 211 154 143 110 89 110 130 139 145 164 166 159 162 162 154 164 178 180 178 177 176 197 186 208 224 201 206 208 215 229 268 332 246 194 224 236 226 231 227 103 84 248 238 246 249 253 260 262 267 269 264 245 233 248 257 260 261 259 259 256 254 250 242
170 153 131 90 57 41 37 31 16 15 108 133 132 126 125 135 147 151 168 212 226 10 357 154 167 109 92 112 106 111 115 122 138 140 157 159 159 166 159 160 175 200 212 195 156 151 251 212 204 222 220 215 211 211 231 35 38 2 355 260 247 251 242 149 99 90 60 269 258 252 259 265 269 271 270 272 267 258 255 254 253 252 250 250 249 250 246 242
188 182 170 140 88 51 24 14 23 44 149 155 164 191 179 165 188 163 164 205 244 29 1 21 50 63 82 106 132 140 123 127 173 141 161 168 171 181 168 171 194 197 189 116 111 125 215 229 222 221 224 216 201 184 122 14 309 277 271 268 248 247 249 107 95 116 129 269 268 271 274 269 268 271 271 269 264 258 253 250 249 248 248 248 247 247 245 244
197 195 189 174 152 72 12 1 7 16 167 177 211 255 341 15 52 69 147 212 166 75 335 19 47 101 77 98 153 178 195 160 161 159 168 175 192 204 169 180 211 189 142 141 156 163 205 229 221 168 90 64 64 116 225 245 258 256 249 259 257 246 239 122 99 116 162 247 277 299 294 279 272 269 265 260 256 253 248 247 249 251 252 250 248 248 245 247
210 201 199 190 179 195 309 332 349 7 172 205 242 267 335 349 39 41 320 241 159 149 211 212 219 160 123 137 177 197 201 165 167 170 171 181 194 217 175 189 214 182 157 189 201 205 212 222 198 109 117 147 143 178 208 228 240 237 238 251 249 152 251 231 103 109 199 240 290 308 297 283 276 264 255 249 248 254 253 250 251 251 252 251 252 255 251 248
218 211 209 199 194 214 258 319 341 347 244 239 255 277 301 295 346 360 302 262 159 145 189 200 277 203 162 133 178 197 204 172 172 159 169 188 175 161 197 203 213 197 191 205 213 228 218 76 62 145 175 203 190 177 199 217 229 227 227 240 248 262 290 285 21 329 241 228 273 292 285 276 275 265 255 238 227 246 248 243 246 239 239 244 246 250 246 244
212 216 216 206 203 211 256 313 329 313 260 236 252 261 278 284 341 345 295 246 207 154 151 181 198 208 167 128 171 192 185 158 112 115 163 197 183 152 189 223 226 214 208 204 218 241 224 75 98 159 168 206 199 191 201 212 237 225 213 233 256 275 302 308 353 333 272 236 181 295 286 274 287 283 273 258 221 235 236 233 243 243 238 233 229 232 231 234
194 205 210 209 205 201 224 280 135 320 167 121 296 254 260 273 337 342 270 241 236 170 148 174 174 179 167 156 158 147 188 189 88 68 140 185 284 169 185 165 226 242 212 188 220 259 151 101 177 165 162 187 206 221 197 196 240 236 201 271 264 267 278 273 295 296 282 294 137 315 300 289 301 288 277 273 253 251 250 250 253 253 249 237 228 228 226 229
188 192 199 204 200 193 188 119 165 290 139 77 331 258 240 248 302 341 240 233 244 164 143 160 193 177 163 163 165 161 194 148 113 105 124 130 166 37 227 182 163 240 173 146 227 238 132 150 187 178 172 177 205 234 186 191 224 228 99 356 183 209 228 236 260 252 288 330 264 204 243 273 287 283 279 270 261 266 258 253 253 250 249 239 229 227 221 226
194 190 194 198 197 194 180 100 190 141 76 18 346 245 220 219 243 310 223 226 221 142 146 141 128 141 131 149 176 166 104 127 142 152 72 17 188 181 230 209 197 192 169 187 223 170 116 171 184 179 187 195 197 359 161 201 216 78 81 81 92 102 136 162 237 254 291 327 272 192 179 247 253 268 283 272 257 272 266 258 259 252 247 232 221 219 196 179
205 192 194 197 196 200 203 216 226 111 43 355 358 191 187 187 232 254 219 223 168 121 135 140 135 139 138 151 170 144 108 122 168 129 126 145 293 221 235 229 213 170 162 218 237 46 55 197 210 195 204 208 116 44 11 249 191 127 138 105 93 106 106 128 239 278 262 265 264 190 177 243 264 249 267 265 252 269 270 264 259 228 196 180 180 172 152 142
205 192 197 197 193 201 211 228 239 224 346 348 32 122 152 178 219 200 200 216 174 123 95 136 162 161 158 162 172 174 163 103 78 129 147 166 160 186 284 273 215 151 152 243 253 87 93 69 317 234 223 121 96 68 25 22 90 142 150 119 115 139 121 199 228 288 267 256 263 180 182 233 277 236 231 246 256 279 270 245 144 126 139 159 155 143 149 149
191 192 195 194 192 198 204 230 238 225 266 21 86 128 156 192 218 206 196 173 349 153 139 154 158 156 169 175 172 175 171 125 139 156 151 155 167 172 173 164 176 167 184 235 221 155 149 163 166 146 82 120 113 88 52 49 113 153 166 163 184 196 176 222 203 175 246 249 207 55 209 248 258 225 209 252 324 279 236 213 164 130 128 140 142 140 146 149
196 204 191 191 198 201 197 240 247 219 210 90 123 153 183 187 209 225 197 110 175 179 154 166 166 166 183 187 176 170 170 153 164 178 173 173 181 182 190 189 171 180 219 218 197 158 189 199 152 115 114 197 165 122 88 96 182 200 193 184 215 228 202 224 212 194 236 235 135 41 350 261 253 241 234 260 274 251 237 226 237 253 216 174 151 147 155 170
227 241 193 191 199 200 201 233 241 199 192 144 133 140 194 199 204 214 197 153 145 154 113 147 165 172 184 189 182 167 169 171 172 188 190 182 193 197 205 210 192 201 240 201 184 166 189 194 151 149 177 210 204 176 149 170 186 195 193 186 207 220 223 233 220 215 243 223 121 190 147 255 267 261 232 235 239 246 254 260 271 276 270 264 190 157 169 187
249 233 220 202 196 189 202 212 156 169 171 142 106 81 167 212 213 205 204 173 76 74 82 128 151 169 182 187 176 162 170 184 170 180 191 184 204 206 205 215 207 216 242 190 192 189 211 237 177 176 167 176 200 215 197 172 178 199 203 201 216 224 238 245 236 246 258 183 149 189 198 238 261 4 208 221 233 255 275 290 283 273 267 274 258 197 197 204
281 234 238 223 207 182 189 195 176 160 155 134 100 131 182 208 210 205 207 151 115 118 98 133 148 166 184 181 162 169 183 207 175 183 193 190 209 207 200 208 204 208 208 206 211 189 221 241 163 153 152 168 187 218 209 176 177 196 200 216 231 237 244 257 308 305 310 335 210 196 237 247 252 303 271 241 238 239 248 256 258 265 258 249 253 239 227 224
323 285 245 210 215 194 176 182 178 164 148 124 118 184 201 216 206 210 212 113 145 140 127 146 156 173 190 180 182 190 208 60 173 184 203 206 224 219 212 208 196 199 200 202 209 185 217 240 129 119 157 169 182 221 201 193 188 174 183 210 219 12 264 248 228 94 72 279 253 214 252 267 277 282 254 231 235 235 230 228 232 257 265 254 255 244 217 205
333 302 248 218 217 200 175 175 178 169 153 134 170 196 217 239 235 270 337 16 161 149 151 174 178 184 193 187 191 190 180 149 171 190 198 195 224 223 216 218 201 200 204 206 220 210 218 247 138 165 179 159 9 340 184 359 13 158 193 202 112 46 311 252 245 224 214 249 256 232 250 267 277 275 220 192 223 236 236 227 212 229 241 246 257 258 233 188
334 306 264 238 214 195 175 173 175 170 156 164 194 206 214 213 208 222 265 346 236 179 192 206 193 190 197 195 191 176 174 175 174 191 200 184 212 212 204 213 209 204 209 214 225 209 204 231 214 165 185 125 84 233 200 116 62 57 293 239 116 228 222 208 224 238 235 241 256 249 250 258 254 256 264 182 209 231 254 254 241 236 229 228 247 261 273 250
317 286 262 212 197 187 174 172 170 164 172 188 198 203 199 196 198 201 206 198 59 189 210 221 195 210 209 194 175 162 176 189 173 182 203 189 197 204 195 200 207 207 208 210 218 194 179 222 222 21 1 127 136 201 207 179 135 32 307 252 210 257 231 213 210 221 237 241 251 258 256 251 243 253 268 265 257 265 277 280 278 273 257 228 227 247 254 250
253 258 231 183 188 181 170 170 174 180 193 206 211 204 191 194 197 198 203 207 152 109 216 278 72 186 198 179 139 159 183 199 188 191 206 190 193 207 193 194 195 198 202 204 213 203 168 215 222 129 57 172 180 204 204 188 170 181 222 212 199 208 247 278 241 221 235 242 243 255 259 257 254 261 269 270 274 282 295 310 297 299 302 272 159 215 238 246
210 238 234 180 181 172 165 171 188 196 205 219 221 216 200 183 190 195 198 202 211 72 116 227 200 169 156 156 79 114 176 205 205 206 212 202 211 214 180 213 199 161 175 198 208 204 187 205 211 167 176 209 208 203 205 203 189 189 202 203 204 201 188 231 238 217 220 244 251 260 268 269 265 268 299 291 314 348 14 8 310 302 305 293 181 194 218 226
206 210 168 161 175 169 168 188 197 195 216 218 219 221 201 137 177 191 185 195 211 209 170 203 209 197 193 194 181 80 116 202 214 219 234 226 229 229 76 6 192 152 156 193 205 207 200 211 219 206 196 202 186 118 96 284 253 234 224 215 214 206 195 214 226 202 193 219 257 274 271 274 268 250 7 308 334 29 28 10 289 286 294 296 274 218 216 210
212 198 98 118 182 178 174 199 201 207 225 213 217 224 207 181 193 188 174 186 204 205 197 202 199 200 205 196 191 168 153 188 228 223 266 271 255 260 52 59 98 163 174 238 220 194 86 193 226 228 215 172 115 108 98 43 302 259 244 230 224 223 220 225 235 269 213 207 218 243 247 266 272 269 285 275 198 124 228 221 241 263 280 282 268 260 238 207
216 216 99 137 194 190 189 201 202 209 216 209 213 217 213 217 213 195 183 187 192 196 205 211 205 205 207 195 195 190 168 179 222 216 238 258 247 267 93 131 162 201 206 184 142 187 168 192 212 220 228 208 180 193 203 190 206 232 239 234 230 232 230 202 68 259 248 229 225 237 240 257 272 273 253 221 195 205 232 227 218 237 255 263 258 246 226 211
207 223 220 193 202 204 211 218 213 214 209 205 212 214 213 219 217 211 206 199 195 195 202 211 209 210 209 196 201 204 186 189 220 212 219 241 235 113 122 181 196 218 215 113 110 164 192 212 195 201 223 222 213 220 204 187 191 213 235 230 227 224 212 195 214 217 231 238 234 239 246 257 270 273 267 229 210 218 234 236 221 218 237 258 271 273 273 288
201 210 195 182 204 238 250 269 262 241 211 201 210 218 217 219 215 211 216 214 206 203 206 212 207 209 213 205 208 216 205 203 218 214 209 227 233 178 122 172 198 208 91 83 115 139 134 258 213 212 227 231 238 253 120 130 161 193 215 221 223 223 214 209 227 227 229 243 242 240 244 253 263 270 275 273 253 234 232 233 233 231 226 232 254 265 269 268
213 217 191 176 186 226 239 243 239 243 218 199 200 207 212 219 217 201 207 215 209 206 213 220 207 204 212 213 215 223 218 213 218 223 220 216 211 154 108 145 213 164 88 59 92 109 105 243 233 229 241 246 254 265 264 179 194 207 211 215 217 220 217 211 223 230 230 241 247 241 237 244 255 265 272 273 267 262 253 241 241 242 229 205 226 251 255 257
215 230 206 191 196 207 213 216 214 220 220 207 204 205 206 213 216 206 200 209 213 209 208 216 214 212 213 212 213 220 221 219 220 223 223 215 196 163 143 184 196 142 117 67 338 95 145 235 240 241 255 261 266 271 272 273 267 249 236 233 223 214 212 212 222 230 229 233 246 247 245 248 252 258 263 266 268 272 275 271 258 245 230 193 224 254 253 248
215 237 224 215 224 216 214 212 200 208 217 214 213 215 209 208 212 210 198 200 212 212 208 214 215 214 217 217 217 220 217 217 220 218 216 212 202 192 198 209 181 127 126 131 54 89 171 230 242 244 260 266 266 268 268 267 270 269 264 257 249 231 217 212 218 227 230 235 244 250 255 257 254 254 261 268 274 278 283 288 260 229 227 228 241 253 250 233
213 217 211 221 235 226 223 216 195 198 212 215 219 219 217 216 214 210 202 196 201 205 208 218 221 215 218 220 221 225 222 220 226 225 219 219 217 214 222 218 197 139 145 157 143 148 178 208 232 225 245 261 261 264 265 261 258 263 266 264 261 254 239 225 222 225 232 240 244 247 254 260 258 257 263 272 278 279 278 273 258 234 226 231 242 253 257 251
224 231 225 225 227 217 217 211 200 200 203 207 217 217 216 218 216 212 210 206 209 209 203 214 224 221 220 224 225 228 230 229 235 240 239 237 234 230 232 228 217 202 164 157 153 156 176 193 199 192 224 249 251 252 258 261 258 256 260 258 251 247 244 236 229 225 226 235 241 244 248 255 260 263 266 269 272 274 275 274 272 261 245 239 241 250 259 260
222 239 236 231 228 212 211 211 205 207 206 203 212 216 216 219 217 215 215 210 216 222 216 215 222 222 223 228 227 231 243 248 253 266 283 286 283 276 279 286 264 225 178 178 172 165 181 191 182 191 221 247 247 247 256 263 259 240 237 242 240 238 240 240 238 232 226 225 233 239 240 247 259 267 267 263 264 269 274 275 273 271 269 261 247 249 258 259